#timestamp,LO_Frequency,Hit,StdDev 
1664636415.8,286046999.8,N
1664636435.7,286047000.5,N
1664636455.5,286047000.8,N
1664636475.3,286047001.0,N
1664636495.2,286046998.9,N
1664636515.9,286046997.1,N
1664636535.7,286046997.0,N
1664636555.6,286046997.8,N
1664636575.4,286046997.4,N
1664636595.3,286046997.7,N
1664636615.1,286046995.0,Y
1664636616.0,286046995.0,P
1664636635.8,286046999.2,N
1664636655.7,286046998.6,N
1664636675.5,286046999.5,N
1664636695.3,286046997.6,N
1664636715.2,286046996.8,N
1664636735.0,286046999.5,N
1664636735.9,286046999.5,N
1664636755.8,286046996.7,N
1664636775.6,286046995.2,Y
1664636795.4,286046998.0,P
1664636815.3,286046997.5,P
1664636835.1,286046997.7,P
1664636855.9,286046998.9,Y
1664636875.7,286047000.0,P
1664636895.5,286046999.9,N
1664636915.4,286046998.1,N
1664636935.2,286047001.0,N
1664636955.1,286047000.7,N
1664636956.0,286047000.7,N
1664636975.8,286047002.8,N
1664636995.6,286047001.7,N
1664637015.5,286047002.6,N
1664637035.3,286047002.7,N
1664637055.1,286047001.0,N
1664637075.9,286046998.1,N
1664637095.7,286046998.7,N
1664637115.6,286046999.1,N
1664637135.4,286046999.1,N
1664637155.2,286046999.1,N
1664637175.1,286046997.1,N
1664637176.0,286046997.1,N
1664637195.8,286046994.9,N
1664637215.6,286046997.4,N
1664637235.5,286046996.6,N
1664637255.3,286046999.0,N
1664637275.2,286046997.3,N
1664637295.9,286046997.4,N
1664637315.7,286046999.4,N
1664637335.6,286046999.5,N
1664637355.4,286046997.0,N
1664637375.2,286046996.7,N
1664637395.1,286046997.4,N
1664637396.0,286046997.4,N
1664637415.8,286046999.1,N
1664637435.7,286046997.4,N
1664637455.5,286046997.8,N
1664637475.3,286046997.1,N
1664637495.2,286046996.9,N
1664637515.0,286046999.4,N
1664637515.9,286046999.4,N
1664637535.7,286046996.9,N
1664637555.6,286046996.6,N
1664637575.4,286046997.8,N
1664637595.3,286046997.7,N
1664637615.1,286046996.8,N
1664637616.0,286046996.8,N
1664637635.8,286046998.9,N
1664637655.7,286046997.0,N
1664637675.5,286046999.4,N
1664637695.3,286046998.8,N
1664637715.2,286046997.2,N
1664637735.0,286046994.9,Y
1664637735.9,286046994.9,P
1664637755.8,286046998.6,N
1664637775.6,286046999.0,N
1664637795.4,286046996.6,N
1664637815.3,286046997.7,N
1664637835.1,286046997.0,N
1664637855.8,286046997.2,N
1664637875.7,286046996.8,N
1664637895.5,286046996.6,Y
1664637915.4,286047000.5,P
1664637935.2,286046999.8,N
1664637955.0,286046999.9,N
1664637955.9,286046999.9,N
1664637975.8,286047000.6,N
1664637995.6,286047002.0,N
1664638015.5,286047002.1,N
1664638035.3,286047004.3,Y
1664638055.1,286047001.3,P
1664638075.9,286047003.6,P
1664638095.7,286047003.2,N
1664638115.6,286047005.6,Y
1664638135.4,286047001.8,P
1664638155.2,286047001.9,P
1664638175.1,286047000.3,N
1664638176.0,286047000.3,N
1664638195.8,286047000.5,N
1664638215.7,286047000.1,N
1664638235.5,286047001.4,N
1664638255.3,286047000.4,N
1664638275.2,286046998.6,N
1664638295.0,286046999.3,N
1664638295.9,286046999.3,N
1664638315.7,286046998.3,N
1664638335.6,286046997.7,N
1664638355.4,286046997.8,N
1664638375.3,286046996.8,N
1664638395.1,286046997.9,N
1664638396.0,286046997.9,N
1664638415.8,286046994.9,Y
1664638435.7,286046997.3,P
1664638455.5,286046997.3,N
1664638475.4,286046997.1,N
1664638495.2,286046997.4,N
1664638515.0,286046997.5,N
1664638515.9,286046997.5,N
1664638535.8,286046997.7,N
1664638555.6,286046997.5,Y
1664638575.4,286047000.8,P
1664638595.3,286046998.2,N
1664638615.1,286046998.1,N
1664638635.9,286046998.4,N
1664638655.7,286046998.3,N
1664638675.5,286047000.9,N
1664638695.4,286046999.8,N
1664638715.2,286047001.0,N
1664638735.0,286047000.9,N
1664638735.9,286047000.9,N
1664638755.8,286047000.8,N
1664638775.6,286047001.2,N
1664638795.5,286047000.6,N
1664638815.3,286047000.6,N
1664638835.1,286047002.5,N
1664638855.9,286047002.2,N
1664638875.7,286047002.2,N
1664638895.6,286047003.9,N
1664638915.4,286047004.4,N
1664638935.2,286047001.7,N
1664638955.1,286047003.5,N
1664638956.0,286047003.5,N
1664638975.8,286047004.2,N
1664638995.7,286046999.9,N
1664639015.5,286047000.7,N
1664639035.3,286047000.6,N
1664639055.2,286047001.2,N
1664639075.9,286046998.3,N
1664639095.7,286046999.9,N
1664639115.6,286047002.3,N
1664639135.4,286047001.3,N
1664639155.3,286047002.6,N
1664639175.1,286047002.4,N
1664639176.0,286047002.4,N
1664639195.8,286047001.9,N
1664639215.7,286047001.6,N
1664639235.5,286047002.1,N
1664639255.3,286047001.4,N
1664639275.2,286047004.0,N
1664639295.0,286047001.6,N
1664639295.9,286047001.6,N
1664639315.8,286047001.3,N
1664639335.6,286047001.9,N
1664639355.4,286046999.8,N
1664639375.3,286047002.3,N
1664639395.1,286047004.0,N
1664639415.8,286047001.5,N
1664639435.7,286047001.3,N
1664639455.5,286047001.3,N
1664639475.4,286047003.8,N
1664639495.2,286047001.4,N
1664639515.0,286047002.9,N
1664639515.9,286047002.9,N
1664639535.8,286047004.4,Y
1664639555.6,286047002.7,P
1664639575.5,286047002.3,P
1664639595.3,286047002.5,P
1664639615.1,286047002.4,Y
1664639635.9,286047000.7,P
1664639655.7,286046998.2,N
1664639675.5,286047001.0,N
1664639695.4,286046998.2,N
1664639715.2,286047000.0,N
1664639735.1,286046998.5,N
1664639736.0,286046998.5,N
1664639755.8,286047001.0,N
1664639775.6,286047000.3,N
1664639795.5,286047000.6,N
1664639815.3,286047000.2,N
1664639835.1,286047000.2,N
1664639855.9,286046999.8,N
1664639875.7,286046999.9,N
1664639895.6,286047000.4,N
1664639915.4,286047000.1,N
1664639935.2,286047000.0,N
1664639955.1,286047002.0,N
1664639956.0,286047002.0,N
1664639975.8,286047001.6,N
1664639995.7,286047002.7,N
